SCP
2 2 3 2 1 0 0 0 0 0 0 0 0 0 0 0 0 0 0 0 0 0 0 0 1 1 1 1 1 1 1 1 1 1 1 1 1 1
2 2 2 2 1 1 0 0 0 0 0 0 0 0 0 0 0 0 0 0 0 0 0 0 0 1 1 1 1 1 1 0 0 0 1 1 1 1
1 1 1 1 1 1 1 0 0 0 0 0 0 0 0 0 0 0 0 0 0 0 0 0 0 0 0 0 0 0 0 0 0 0 0 0 0 1
0 0 0 0 1 1 0 0 0 0 0 0 0 0 0 0 0 0 0 0 0 0 0 0 0 0 0 0 0 0 0 0 0 0 0 0 0 0
0 0 0 0 0 0 0 0 0 0 0 0 0 0 0 0 0 0 0 0 0 0 0 0 0 0 0 0 0 0 0 0 0 0 0 0 0 0
0 0 0 0 0 0 0 0 0 0 0 0 0 0 0 0 0 0 0 0 0 0 0 0 0 0 0 0 0 0 0 0 0 0 0 0 0 0
0 0 0 0 0 0 0 0 0 0 0 0 0 0 0 0 0 0 0 0 0 0 0 0 0 0 0 0 0 0 0 0 0 0 0 0 0 0
0 0 0 0 0 0 0 0 0 0 0 0 0 0 0 0 0 0 0 0 0 0 0 0 0 0 0 0 0 0 0 0 0 0 0 0 0 0
0 0 0 0 0 0 0 0 0 0 0 0 0 0 0 0 0 0 0 0 0 0 0 0 0 0 0 0 0 0 0 0 0 0 0 0 0 0
0 0 0 0 0 0 0 0 0 0 0 0 0 0 0 0 0 0 0 0 0 0 0 0 0 0 0 0 0 0 0 0 0 0 0 0 0 0
0 0 0 0 0 0 0 0 0 0 0 0 0 0 0 0 0 0 0 0 0 0 0 0 0 0 0 0 0 0 0 0 0 0 0 0 0 0
0 0 0 0 0 0 0 0 0 0 0 0 0 0 0 0 0 0 0 0 0 0 0 0 0 0 0 1 0 0 0 0 0 0 0 0 0 0
0 0 0 0 0 0 0 0 0 0 0 0 0 0 0 0 0 0 0 0 0 0 0 0 0 0 0 0 0 0 0 0 0 0 0 0 0 0
0 0 0 0 0 0 0 0 0 0 0 0 0 0 0 0 0 0 0 0 0 0 0 0 0 0 0 0 0 0 0 0 0 0 0 0 0 0
0 0 0 0 0 0 0 0 0 0 0 0 0 0 0 0 0 0 0 0 0 0 0 0 0 0 0 0 0 0 0 0 0 0 0 0 0 0
0 0 0 0 0 0 0 0 0 0 0 0 0 0 0 0 0 0 0 0 0 0 0 1 1 1 0 0 0 0 0 0 0 0 0 0 0 0
0 0 0 0 0 0 0 0 0 0 0 0 0 0 0 0 0 0 0 0 0 0 0 0 1 1 1 0 0 0 0 0 0 0 0 0 0 0
0 0 0 0 0 0 0 0 0 0 0 0 0 0 0 0 0 0 0 0 0 0 0 0 1 1 1 1 0 0 0 0 0 0 0 0 0 0
0 0 0 0 0 0 0 0 0 0 0 0 0 0 0 0 0 0 0 0 0 0 0 0 0 1 1 1 0 0 0 0 0 0 0 0 0 0
0 0 0 0 0 0 0 0 0 0 0 0 0 0 0 0 0 0 0 0 0 0 0 0 0 0 1 1 0 0 0 0 0 0 0 0 0 0
0 0 0 0 0 0 0 0 0 0 0 0 0 0 0 0 0 0 0 0 0 0 0 0 0 0 0 1 0 0 0 0 0 0 0 0 0 0
0 0 0 0 0 0 0 0 0 0 0 0 0 0 0 0 0 0 0 0 0 0 0 0 0 0 0 1 0 0 0 0 0 0 0 0 0 0
0 0 0 0 0 0 0 0 0 0 0 0 0 0 0 0 0 0 0 0 0 0 0 0 0 0 0 0 0 0 0 0 0 0 0 0 0 0
Wind_Speed
4 4 4 3 3 3 3 3 4 2 3 3 2 3 3 3 5 5 5 9 11 12 13 13 13 13 12 12 11 10 10 9 9 8 8 8 8 8
3 4 4 3 3 3 3 3 3 4 3 3 4 3 3 4 5 4 5 8 10 12 12 13 13 13 13 13 12 12 11 10 10 9 9 9 9 9
4 4 5 4 4 3 3 3 3 3 3 4 3 2 3 4 3 3 4 4 5 11 12 13 13 13 13 13 12 12 11 11 11 10 10 10 10 10
5 4 5 4 5 4 4 4 3 4 4 4 3 3 4 4 4 4 4 4 4 8 12 13 13 13 13 13 13 12 12 11 11 11 10 10 10 10
5 5 6 5 5 4 5 5 4 4 4 4 4 3 3 2 2 3 3 3 4 6 9 10 11 11 12 12 12 12 12 11 11 11 11 11 11 10
5 6 6 6 6 6 5 5 4 4 3 3 4 3 3 2 2 2 2 2 3 4 4 5 7 9 10 11 11 12 12 12 12 12 12 11 11 10
4 5 6 7 8 7 5 5 5 4 4 4 4 3 3 2 3 3 3 2 3 3 3 3 3 4 5 8 10 12 12 12 12 12 12 11 11 11
4 4 5 6 7 9 10 9 8 7 6 5 4 5 5 4 3 3 3 2 3 3 3 3 3 4 5 5 9 11 12 12 12 11 11 11 11 11
4 4 4 4 5 5 7 8 8 10 10 7 6 6 6 5 4 4 4 4 5 4 3 3 3 4 4 5 9 10 11 11 11 11 11 11 11 11
5 5 4 4 4 4 4 4 4 5 7 6 6 7 6 5 5 5 5 4 3 3 4 3 3 4 4 3 8 10 11 11 11 11 11 10 10 11
4 4 4 4 5 4 3 3 3 4 5 7 8 8 8 8 5 3 2 2 3 3 3 3 2 2 2 3 5 9 10 10 10 10 10 10 10 9
3 3 4 5 5 4 3 3 4 4 3 2 3 4 5 6 7 6 5 4 3 2 3 4 3 2 1 2 2 3 4 7 8 9 9 9 9 5
3 3 3 5 5 5 4 4 6 5 3 3 2 2 2 2 3 4 5 5 4 4 4 4 3 3 3 2 1 3 3 3 4 4 6 8 9 7
4 3 4 5 5 5 4 5 7 5 2 2 2 2 2 2 3 3 4 4 4 5 5 5 4 4 4 2 2 1 2 3 3 3 3 4 6 8
3 4 4 4 3 3 5 6 4 2 2 2 3 3 3 3 1 1 1 1 1 2 3 4 5 4 4 4 3 2 2 2 3 3 3 3 3 3
2 2 2 3 2 3 3 2 2 3 3 3 3 2 1 1 1 2 2 1 0 2 1 2 4 5 3 3 3 3 3 3 2 2 2 2 2 3
1 0 0 0 1 1 1 1 1 1 2 2 2 2 1 1 2 2 2 1 1 1 1 1 1 2 3 4 3 3 3 2 3 3 2 2 2 3
2 1 1 2 2 2 2 2 2 2 2 2 2 2 2 2 2 1 2 2 2 2 2 2 2 1 1 1 3 4 3 3 2 3 3 2 3 3
2 2 2 2 2 2 2 2 2 3 2 2 2 2 2 2 2 2 2 2 2 2 2 2 2 3 3 2 3 3 5 3 3 2 2 3 3 3
2 2 3 3 2 2 3 2 2 2 1 2 2 2 2 2 2 2 2 3 3 2 2 2 3 4 5 4 3 2 4 5 4 3 2 1 1 2
3 3 3 3 2 2 2 2 2 2 2 1 2 2 2 2 2 2 2 3 3 2 2 3 4 4 3 3 2 1 1 2 5 5 4 2 1 1
3 3 3 2 2 2 2 2 1 1 1 1 1 2 2 2 3 3 3 3 2 2 3 2 1 2 3 4 3 2 1 0 0 1 2 5 4 4
3 2 2 2 2 1 1 1 1 1 1 1 1 1 1 2 2 2 2 2 2 2 1 1 1 1 2 3 3 3 3 2 1 0 2 3 4 5
Wind_Direction
224 216 214 218 206 200 191 182 181 223 258 250 245 240 229 224 222 219 219 218 215 210 209 210 210 210 212 213 215 218 220 220 222 226 226 226 230 237
217 212 217 218 214 205 198 196 191 194 230 241 237 234 226 235 231 222 223 224 220 215 213 212 212 212 212 213 214 216 217 218 218 221 224 226 229 235
227 216 220 213 212 213 206 200 197 187 224 260 251 245 228 228 235 223 225 228 228 220 216 213 213 213 212 213 214 215 218 217 217 218 222 225 227 232
232 225 227 219 215 213 207 211 212 204 202 235 254 248 242 226 220 225 234 234 230 224 217 214 214 215 215 213 214 214 216 216 216 218 221 225 227 231
227 222 225 214 218 215 210 214 217 218 197 208 242 246 250 235 228 244 243 244 238 230 216 215 214 214 215 213 212 211 212 214 216 218 220 224 226 228
234 227 225 214 219 217 219 215 212 214 205 207 228 240 243 236 198 224 258 258 245 233 223 214 214 216 216 215 213 210 211 214 217 218 219 220 222 225
244 235 233 230 228 221 221 211 203 207 206 210 224 235 235 216 217 216 229 258 262 224 207 215 206 213 220 219 217 215 214 216 217 218 220 222 222 223
249 252 249 240 237 231 233 223 208 203 206 211 221 225 237 226 218 210 209 221 261 226 185 220 196 212 218 214 217 217 216 216 217 219 221 222 223 223
245 250 257 251 240 231 236 234 228 224 213 207 214 226 228 218 202 213 214 211 231 221 172 223 207 218 225 222 215 214 214 215 217 220 222 224 225 226
241 240 241 248 242 228 225 230 236 236 226 216 216 226 226 218 202 205 209 215 249 236 176 203 213 217 220 217 216 214 215 217 219 222 223 225 226 226
254 242 228 230 241 229 203 215 246 267 258 234 226 230 233 229 210 181 187 186 235 232 187 177 197 199 209 221 221 214 216 219 223 226 227 228 227 225
266 256 239 233 239 229 195 200 230 253 254 270 258 248 236 231 214 199 196 194 208 226 201 171 180 160 209 240 219 211 215 224 227 229 230 230 221 212
253 261 252 241 238 234 216 214 230 239 234 229 243 255 244 225 220 206 197 194 198 225 201 165 174 173 177 210 236 216 203 210 216 228 230 226 218 204
237 246 248 245 236 234 232 236 242 241 221 214 227 246 243 237 228 216 207 212 213 216 204 170 173 181 172 185 227 225 209 206 200 215 224 225 226 221
242 247 250 246 236 235 236 238 238 219 203 209 226 238 234 227 211 203 210 204 247 240 212 188 176 179 174 187 195 197 208 226 200 199 210 212 214 205
260 268 264 253 254 253 256 251 226 214 205 216 227 234 222 203 203 190 190 178 178 300 282 194 184 175 182 194 186 201 199 198 200 198 192 213 221 209
223 121 28 295 279 273 276 270 244 220 211 221 215 223 224 214 218 205 184 159 169 230 284 291 156 165 182 175 182 204 200 200 197 182 172 208 242 228
138 172 226 230 235 242 247 259 248 229 220 211 209 213 218 217 220 205 176 170 197 224 229 222 155 106 45 314 206 192 193 198 197 185 175 188 242 251
162 219 234 236 240 242 242 240 245 238 214 201 207 219 224 220 208 205 194 183 204 227 233 219 183 169 186 244 276 202 181 183 174 182 195 196 220 242
233 236 242 241 238 240 244 244 248 239 213 209 216 220 213 204 204 209 200 194 207 227 243 235 204 194 196 204 210 240 197 177 175 187 205 210 238 260
243 244 245 241 242 242 238 232 230 230 227 219 221 218 210 197 208 216 207 201 200 210 228 242 238 210 171 129 135 240 259 209 184 181 180 181 220 263
248 248 248 245 241 239 232 221 216 222 228 229 237 235 228 213 210 213 207 205 206 215 237 252 234 159 154 168 184 192 205 240 137 149 195 191 182 194
254 251 250 246 238 229 228 214 206 220 234 237 234 240 237 233 226 211 208 212 209 211 215 228 222 161 168 173 175 176 179 187 173 87 318 280 215 214